User: anonymous
Location: Caltech
(34.1382°N, 118.1253°W)
Time: 15:24:47
(UTC-07:00)
Language:

PAYLOAD A - Orbit

View from above orbital plane
View from above orbital plane
View from above satellite
View from above satellite

Ground track
Ground track

The orbit data is extracted from the following two-line orbital elements,

1 27840U 03031A   14265.15080949  .00000024  00000-0  21242-4 0  6530
2 27840 098.2298 289.8469 0097428 249.8757 195.2637 14.38724699589658
Epoch (UTC): 22 September 2014 03:37:09
Eccentricity: 0.0097428
inclination: 98.2298°
perigee height: 693 km
apogee height: 832 km
right ascension of ascending node: 289.8469°
argument of perigee: 249.8757°
revolutions per day: 14.38724699
mean anomaly at epoch: 195.2637°
orbit number at epoch: 58965

The dashed part of the orbit path shows where the satellite is in the earth's shadow,  

DLR